Вернуться в каталог

STARLINK-36128

АктивенСвязьVLEO
NORAD 66873·PAYLOAD·🇺🇸 United States

Запущен Dec 2, 2025 с Cape Canaveral Space Force Station

Loading…

Ближайшие Пролёты (ближайшие 24 часа)

TLE

СвежийSource: CelesTrak SupGP

Эпоха: Sep 14, 2026, 21:27 UTC

1 66873C 25281AB  26257.89423611 -.00005970  00000+0 -21631-3 0  2579
2 66873  43.0025 354.8723 0001548 278.1330  48.7471 15.27572373    14

Отслеживайте STARLINK-36128 в реальном времени с AllMySat

Download on the App Store